STARLINK-1107 (44972 NORAD) Tracking and Keplerian Element Data

This shows tracking and keplerian element data for the satellite.

Feedback or suggestion? Click here.




ElementValue
Catalog44972
NameSTARLINK-1107
Epoch Orbit162
Epoch Day93.91667824
Epoch Year2020
RAAN326.4632
Inclination53.0005
Eccentricity0.0001532
Argument of Perigee60.8857
Mean Anonmoly88.098
Mean Motion15.62753639
Decay Rate-0.00018994
L11 44972U 20001BL 20093.91667824 -.00018994 00000-0 -20207-3 0 9993
L22 44972 53.0005 326.4632 0001532 60.8857 88.0980 15.62753639 1621

Live tracking and technical data element details for STARLINK-1107 (NORAD 44972). STARLINK-1107 can be tracked NOW for your location showing map with azimuth and elevation plus other details from your city location.

Track the satellite on the map from your city or location and see movement details for azimuth, elevation, latitude, longitude, range, height, and movement on the map or in text.







IsCatalogInMostPopularTable: catalog: 44972, numindb: 29
Update: records affected: 1



GetName: 44972 STARLINK-1107

Hit Count: updated at: Fri, 10 Apr 2020 18:27:49 GMT